| time (UTC) | temp F | wind direction | speed MPH | gust MPH | rain 1hr in | rain 24hr in | rain mn in | humidity % | barometer mb |
| 20260502220025 | 48 | 288 | 2.0 | 7.0 | 0.00 | 0.00 | 0.00 | 46 | 1016.7 |
| 20260502214523 | 47 | 316 | 1.0 | 7.0 | 0.00 | 0.00 | 0.00 | 49 | 1016.7 |
| 20260502213031 | 47 | 276 | 2.0 | 6.0 | 0.00 | 0.00 | 0.00 | 44 | 1016.6 |
| 20260502211510 | 48 | 269 | 2.0 | 9.0 | 0.00 | 0.00 | 0.00 | 46 | 1016.7 |
| 20260502210019 | 47 | 248 | 1.0 | 7.0 | 0.00 | 0.00 | 0.00 | 49 | 1016.9 |
| 20260502204519 | 47 | 266 | 2.0 | 9.0 | 0.00 | 0.00 | 0.00 | 45 | 1016.9 |
| 20260502203026 | 47 | 281 | 0.0 | 8.0 | 0.00 | 0.00 | 0.00 | 47 | 1017.0 |
| 20260502201535 | 47 | 285 | 2.0 | 9.0 | 0.00 | 0.00 | 0.00 | 47 | 1017.1 |
| 20260502200012 | 47 | 244 | 3.0 | 8.0 | 0.00 | 0.00 | 0.00 | 44 | 1017.3 |
| 20260502194533 | 48 | 338 | 3.0 | 9.0 | 0.00 | 0.00 | 0.00 | 43 | 1017.4 |
| 20260502193029 | 47 | 241 | 2.0 | 13.0 | 0.00 | 0.00 | 0.00 | 47 | 1017.5 |
| 20260502191507 | 47 | 271 | 2.0 | 9.0 | 0.00 | 0.00 | 0.00 | 46 | 1017.5 |
| 20260502190026 | 47 | 236 | 3.0 | 12.0 | 0.00 | 0.00 | 0.00 | 44 | 1017.8 |
| 20260502184519 | 48 | 355 | 4.0 | 9.0 | 0.00 | 0.00 | 0.00 | 41 | 1017.8 |
| 20260502183007 | 47 | 269 | 2.0 | 7.0 | 0.00 | 0.00 | 0.00 | 44 | 1017.8 |
| 20260502181503 | 47 | 360 | 2.0 | 8.0 | 0.00 | 0.00 | 0.00 | 48 | 1017.9 |
| 20260502163039 | 45 | 269 | 2.0 | 9.0 | 0.00 | 0.00 | 0.00 | 48 | 1018.5 |
| 20260502161520 | 46 | 15 | 3.0 | 9.0 | 0.00 | 0.00 | 0.00 | 54 | 1018.5 |
| 20260502151514 | 45 | 331 | 6.0 | 11.0 | 0.00 | 0.00 | 0.00 | 56 | 1018.4 |
| 20260502123022 | 38 | 360 | 5.0 | 10.0 | 0.00 | 0.00 | 0.00 | 73 | 1018.3 |
| 20260502121526 | 37 | 345 | 3.0 | 8.0 | 0.00 | 0.00 | 0.00 | 76 | 1018.2 |
| 20260502114517 | 35 | 299 | 1.0 | 5.0 | 0.00 | 0.00 | 0.00 | 80 | 1018.1 |
| 20260502113022 | 33 | 355 | 0.0 | 5.0 | 0.00 | 0.00 | 0.00 | 83 | 1018.0 |
| 20260502111527 | 31 | 311 | 0.0 | 2.0 | 0.00 | 0.00 | 0.00 | 87 | 1017.9 |
| 20260502110024 | 30 | 355 | 0.0 | 1.0 | 0.00 | 0.01 | 0.00 | 87 | 1017.6 |
| 20260502104514 | 30 | 355 | 0.0 | 0.0 | 0.00 | 0.01 | 0.00 | 86 | 1017.7 |
| 20260502103018 | 30 | 355 | 0.0 | 0.0 | 0.00 | 0.01 | 0.00 | 85 | 1017.8 |
| 20260502101503 | 31 | 355 | 0.0 | 0.0 | 0.00 | 0.01 | 0.00 | 83 | 1017.6 |
| 20260502091503 | 34 | 355 | 0.0 | 0.0 | 0.00 | 0.01 | 0.00 | 79 | 1017.3 |
| 20260502071515 | 39 | 5 | 0.0 | 5.0 | 0.00 | 0.03 | 0.00 | 75 | 1017.0 |
| 20260502070020 | 39 | 5 | 1.0 | 4.0 | 0.00 | 0.05 | 0.00 | 76 | 1017.0 |
| 20260502064535 | 38 | 5 | 1.0 | 5.0 | 0.00 | 0.06 | 0.00 | 78 | 1017.1 |
| 20260502063007 | 38 | 5 | 0.0 | 2.0 | 0.00 | 0.07 | 0.00 | 80 | 1017.1 |
| 20260502061510 | 39 | 5 | 0.0 | 1.0 | 0.00 | 0.07 | 0.00 | 80 | 1017.1 |
| 20260502060018 | 39 | 5 | 1.0 | 4.0 | 0.00 | 0.07 | 0.00 | 79 | 1017.2 |
| 20260502054520 | 39 | 5 | 2.0 | 5.0 | 0.00 | 0.08 | 0.00 | 79 | 1017.3 |
| 20260502053025 | 38 | 355 | 1.0 | 5.0 | 0.00 | 0.08 | 0.00 | 80 | 1017.3 |
| 20260502051515 | 38 | 249 | 0.0 | 1.0 | 0.00 | 0.08 | 0.00 | 82 | 1017.4 |
| 20260502050016 | 38 | 292 | 0.0 | 2.0 | 0.00 | 0.08 | 0.00 | 82 | 1017.3 |
| 20260502044520 | 38 | 355 | 0.0 | 2.0 | 0.00 | 0.09 | 0.00 | 85 | 1017.3 |
| 20260502043022 | 38 | 355 | 0.0 | 1.0 | 0.00 | 0.10 | 0.00 | 85 | 1017.2 |
| 20260502041525 | 37 | 355 | 0.0 | 1.0 | 0.00 | 0.12 | 0.00 | 86 | 1016.9 |
| 20260502040012 | 36 | 355 | 0.0 | 0.0 | 0.00 | 0.14 | 0.00 | 86 | 1016.8 |
| 20260502034516 | 36 | 355 | 0.0 | 0.0 | 0.00 | 0.15 | 0.14 | 86 | 1016.8 |
| 20260502033019 | 36 | 355 | 0.0 | 0.0 | 0.00 | 0.16 | 0.14 | 83 | 1016.8 |
| 20260502031522 | 37 | 355 | 0.0 | 0.0 | 0.00 | 0.16 | 0.14 | 82 | 1016.6 |
| 20260502030024 | 37 | 355 | 0.0 | 0.0 | 0.00 | 0.19 | 0.14 | 81 | 1016.5 |
| 20260502024515 | 38 | 355 | 0.0 | 0.0 | 0.00 | 0.20 | 0.14 | 79 | 1016.5 |
| 20260502023014 | 39 | 355 | 0.0 | 0.0 | 0.00 | 0.20 | 0.14 | 77 | 1016.5 |
| 20260502021519 | 40 | 355 | 0.0 | 1.0 | 0.00 | 0.20 | 0.14 | 76 | 1016.5 |
| 20260502020024 | 41 | 355 | 0.0 | 0.0 | 0.00 | 0.20 | 0.14 | 75 | 1016.2 |
| 20260502014547 | 41 | 355 | 0.0 | 6.0 | 0.00 | 0.20 | 0.14 | 72 | 1016.2 |
| 20260502013028 | 42 | 349 | 0.0 | 6.0 | 0.00 | 0.20 | 0.14 | 73 | 1016.1 |
| 20260502011516 | 42 | 351 | 3.0 | 9.0 | 0.00 | 0.20 | 0.14 | 73 | 1016.0 |
| 20260502010019 | 42 | 342 | 2.0 | 5.0 | 0.00 | 0.20 | 0.14 | 73 | 1015.9 |
| 20260502004524 | 42 | 349 | 0.0 | 4.0 | 0.00 | 0.20 | 0.14 | 74 | 1015.8 |
| 20260502003013 | 42 | 355 | 0.0 | 3.0 | 0.00 | 0.20 | 0.14 | 74 | 1015.9 |
| 20260502001518 | 43 | 340 | 0.0 | 3.0 | 0.00 | 0.20 | 0.14 | 76 | 1015.7 |
| 20260502000038 | 43 | 318 | 1.0 | 4.0 | 0.00 | 0.20 | 0.14 | 75 | 1015.6 |
| 20260501234504 | 43 | 252 | 0.0 | 4.0 | 0.00 | 0.20 | 0.14 | 77 | 1015.5 |
| 20260501233008 | 43 | 351 | 0.0 | 2.0 | 0.00 | 0.20 | 0.14 | 78 | 1015.4 |
| 20260501231518 | 43 | 351 | 0.0 | 3.0 | 0.00 | 0.20 | 0.14 | 77 | 1015.4 |
| 20260501230016 | 42 | 346 | 0.0 | 5.0 | 0.00 | 0.20 | 0.14 | 78 | 1015.4 |
| 20260501224521 | 43 | 312 | 2.0 | 6.0 | 0.00 | 0.20 | 0.14 | 76 | 1015.5 |
| 20260501223004 | 46 | 306 | 2.0 | 8.0 | 0.00 | 0.20 | 0.14 | 68 | 1015.3 |
| 20260501221518 | 46 | 9 | 3.0 | 10.0 | 0.00 | 0.20 | 0.14 | 63 | 1014.9 |